[[{"header":{"parameterUnit":"m.s-1","parameterCategory":1,"la1":30.2991,"la2":30.254,"lo1":-89.0895,"lo2":-89.0444,"dy":0.0017,"dx":0.0017,"nx":28,"ny":28,"refTime":"2025-08-08T09:00:00:Z","depth":0,"parameterNumber":2,"parameterNumberName":"U-component_of_WINDS"},"data":[0,0,0,0,0,0,0,0,0,0,0,0,0,0,0,0,0,0,0,0,0,0,0,0,0,0,0,0,0,0,0,0,0,0,0,0,0,0,0,0,0,0,0,0,0,0,0,0,0,0,0,0,0,0,0,0,0,0,-4.3369,-4.3369,0,-4.3403,-4.3404,-4.3404,-4.327,-4.3266,-4.3262,-4.3258,-4.3293,-4.3297,-4.3302,0,0,0,0,0,0,0,0,0,0,0,0,0,-4.3184,-4.3188,-4.3369,-4.3369,-4.3369,-4.3403,-4.3404,-4.3404,-4.327,-4.3265,-4.3261,-4.3256,-4.3291,-4.3297,-4.3302,0,0,0,0,0,0,0,0,0,0,0,0,0,-4.3246,-4.3189,-4.3368,-4.3307,-4.3301,-4.3403,-4.3404,-4.3404,-4.3271,-4.3265,-4.3259,-4.3254,-4.3289,-4.3296,-4.3303,-4.3466,0,0,-4.3324,-4.3327,0,0,0,0,0,0,0,0,-4.3243,-4.3253,-4.3315,-4.3311,-4.3305,-4.3326,-4.3351,-4.3425,-4.3273,-4.3283,-4.3258,-4.3251,-4.3309,-4.3314,-4.3333,-4.3467,-4.3469,-4.3325,-4.3329,-4.3332,-4.3334,0,0,0,0,0,0,0,-4.3238,-4.3251,-4.3382,-4.3316,-4.331,-4.3276,-4.3279,-4.3365,-4.3329,-4.3281,-4.3272,-4.3278,-4.3305,-4.3327,-4.3333,-4.3469,-4.3325,-4.3331,-4.3335,-4.3338,-4.3735,-4.3741,0,0,0,0,0,0,-4.3243,-4.3248,-4.3381,-4.3383,-4.3259,-4.3285,-4.3287,-4.3325,-4.3327,-4.3322,-4.3283,-4.3271,-4.3318,-4.3325,-4.3334,-4.3521,-4.3332,-4.3339,-4.3343,-4.3729,-4.3736,-4.3743,0,0,0,0,0,0,-4.3239,-4.3256,-4.338,-4.3313,-4.3326,-4.3294,-4.3338,-4.3329,-4.3351,-4.3328,-4.3321,-4.3312,-4.3313,-4.3324,-4.3433,-4.3521,-4.3342,-4.3348,-4.3721,-4.3731,-4.374,-4.39,0,0,0,0,0,0,-4.3234,-4.3255,-4.3317,-4.3315,-4.333,-4.348,-4.3344,-4.3334,-4.3364,-4.3349,-4.3354,-4.3349,-4.331,-4.3423,-4.344,-4.3527,-4.3353,-4.3713,-4.3726,-4.3737,-4.3887,-4.3914,-4.3938,0,0,0,0,0,-4.3228,-4.3362,-4.3321,-4.3338,-4.3407,-4.3485,-4.3493,-4.3445,-4.3371,-4.3433,-4.3418,-4.3349,-4.3509,-4.3436,-4.3453,-4.3544,-4.3707,-4.3722,-4.3736,-4.3876,-4.3909,-4.3937,0,0,0,0,0,0,-4.3375,-4.336,-4.3315,-4.3452,-4.3471,-4.3462,-4.3538,-4.3483,-4.3522,-4.3507,-4.3445,-4.3448,-4.3567,-4.3567,-4.3485,-4.37,-4.3595,-4.3614,-4.3696,-4.3727,-4.3752,-4.3748,-4.3359,0,0,0,0,0,-4.3423,-4.3488,-4.3472,-4.3594,-4.3606,-4.3571,-4.3603,-4.3564,-4.3581,-4.3588,-4.3581,-4.36,-4.3653,-4.3691,-4.3739,-4.3887,-4.3885,-4.3958,-4.3983,-4.4004,-4.402,-4.4095,-4.4127,-4.379,-4.379,-4.379,0,0,-4.3523,-4.3523,-4.3568,-4.3623,-4.3633,-4.37,-4.3578,-4.3655,-4.3704,-4.36,-4.3701,-4.3698,-4.3714,-4.3842,-4.3899,-4.3846,-4.4113,-4.4022,-4.4039,-4.4044,-4.4113,-4.4145,-4.4174,-4.38,-4.3798,-4.3797,0,0,-4.374,-4.3748,-4.3849,-4.3861,-4.3877,-4.3853,-4.3878,-4.3878,-4.3871,-4.3972,-4.3894,-4.3952,-4.4047,-4.4061,-4.4081,-4.4302,-4.4239,-4.432,-4.445,-4.4525,-4.4551,-4.4574,-4.465,-4.4679,-4.4336,-4.4336,-4.4337,0,-4.3862,-4.3961,-4.3908,-4.399,-4.4015,-4.3924,-4.4025,-4.4039,-4.4071,-4.4091,-4.4031,-4.4147,-4.4152,-4.4281,-4.4335,-4.4355,-4.4379,-4.4317,-4.4552,-4.4574,-4.4595,-4.4667,-4.4696,-4.4346,-4.4345,-4.4344,-4.4343,0,-4.4109,-4.4179,-4.4259,-4.4291,-4.4325,-4.4417,-4.4377,-4.4418,-4.4377,-4.4359,-4.4462,-4.4465,-4.4511,-4.454,-4.45,-4.4663,-4.4629,-4.4562,-4.4455,-4.4638,-4.4704,-4.4731,-4.4359,-4.4356,-4.4353,-4.4351,0,0,-4.4418,-4.4419,-4.4449,-4.4461,-4.4472,-4.4525,-4.4612,-4.4657,-4.4692,-4.4718,-4.4787,-4.487,-4.4807,-4.4829,-4.4791,-4.4856,-4.5028,-4.478,-4.478,-4.4824,-4.5204,-4.5253,-4.5286,-4.4987,-4.4992,-4.4996,-4.5202,0,-4.4628,-4.4775,-4.473,-4.4878,-4.4941,-4.4855,-4.4929,-4.4944,-4.4929,-4.498,-4.4963,-4.5021,-4.4936,-4.4948,-4.501,-4.4994,-4.5103,-4.4979,-4.5049,-4.5053,-4.5045,-4.5321,-4.5373,-4.5567,-4.5228,-4.5232,-4.5236,0,-4.4893,-4.4927,-4.5082,-4.508,-4.5105,-4.5173,-4.521,-4.526,-4.5274,-4.5258,-4.5283,-4.5231,-4.5314,-4.5209,-4.5322,-4.5239,-4.5265,-4.5262,-4.5268,-4.5271,-4.5153,-4.5329,-4.5628,-4.5656,-4.5276,-4.5273,-4.527,0,-4.5099,-4.5185,-4.5287,-4.5301,-4.5303,-4.5352,-4.5355,-4.5363,-4.5393,-4.5425,-4.5443,-4.5486,-4.5508,-4.5542,-4.5501,-4.5429,-4.562,-4.5512,-4.5607,-4.5608,-4.5649,-4.5647,-4.5955,-4.5671,-4.5671,-4.567,-4.567,0,-4.5337,-4.5434,-4.5379,-4.5443,-4.5548,-4.5495,-4.5601,-4.5594,-4.5602,-4.5661,-4.5591,-4.5648,-4.5592,-4.5644,-4.5613,-4.5709,-4.5721,-4.571,-4.57,-4.5715,-4.5716,-4.5729,-4.5714,-4.5678,-4.5676,-4.5675,-4.5674,0,-4.5584,-4.5552,-4.5658,-4.565,-4.5651,-4.5729,-4.5722,-4.5779,-4.576,-4.5836,-4.585,-4.5819,-4.5876,-4.584,-4.5898,-4.5877,-4.6003,-4.5976,-4.5998,-4.5989,-4.6086,-4.6077,-4.6411,-4.6451,-4.6145,-4.6148,-4.6151,0,-4.5737,-4.581,-4.581,-4.5844,-4.5852,-4.5909,-4.5938,-4.5888,-4.5922,-4.5942,-4.5997,-4.6048,-4.6086,-4.6181,-4.6163,-4.6207,-4.6178,-4.6292,-4.6184,-4.6196,-4.6177,-4.6172,-4.6178,-4.6314,-4.6317,-4.632,-4.6323,0,-4.6011,-4.5991,-4.6036,-4.6076,-4.6113,-4.6142,-4.6165,-4.6197,-4.6147,-4.6188,-4.6245,-4.6275,-4.6333,-4.6384,-4.642,-4.6422,-4.6364,-4.6357,-4.6381,-4.6396,-4.6404,-4.6398,-4.6054,-4.6349,-4.6346,-4.6344,-4.6343,-4.6342,-4.6213,-4.6273,-4.6282,-4.6334,-4.6346,-4.6369,-4.6421,-4.6408,-4.6455,-4.6498,-4.6466,-4.6534,-4.6544,-4.6587,-4.6596,-4.6647,-4.6601,-4.6636,-4.6645,-4.6654,-4.6666,-4.6399,-4.6654,-4.6653,-4.6653,-4.6652,-4.6651,0,-4.6481,-4.6482,-4.6531,-4.6564,-4.6605,-4.6548,-4.657,-4.6607,-4.6668,-4.6683,-4.6721,-4.6786,-4.6835,-4.6821,-4.6864,-4.6908,-4.6882,-4.692,-4.6915,-4.6916,-4.6706,-4.668,-4.694,-4.694,-4.694,-4.694,-4.694,-4.694,-4.6624,-4.6721,-4.6702,-4.6804,-4.6804,-4.6869,-4.6886,-4.6907,-4.6918,-4.6993,-4.7033,-4.7024,-4.7027,-4.7069,-4.7111,-4.7105,-4.7123,-4.7172,-4.7156,-4.696,-4.6931,-4.6904,-4.6879,-4.7177,-4.7177,-4.7361,-4.7363,-4.7364]},{"header":{"parameterUnit":"m.s-1","parameterCategory":1,"la1":30.2991,"la2":30.254,"lo1":-89.0895,"lo2":-89.0444,"dy":0.0017,"dx":0.0017,"nx":28,"ny":28,"refTime":"2025-08-08T09:00:00:Z","depth":0,"parameterNumber":3,"parameterNumberName":"V-component_of_WINDS"},"data":[0,0,0,0,0,0,0,0,0,0,0,0,0,0,0,0,0,0,0,0,0,0,0,0,0,0,0,0,0,0,0,0,0,0,0,0,0,0,0,0,0,0,0,0,0,0,0,0,0,0,0,0,0,0,0,0,0,0,0.5887,0.5887,0,0.5843,0.5842,0.5842,0.5809,0.5809,0.5809,0.5808,0.5758,0.5757,0.5756,0,0,0,0,0,0,0,0,0,0,0,0,0,0.594,0.5939,0.5887,0.5887,0.5886,0.5843,0.5842,0.5842,0.5809,0.5809,0.5809,0.5808,0.5758,0.5757,0.5756,0,0,0,0,0,0,0,0,0,0,0,0,0,0.5908,0.5939,0.5887,0.5865,0.5862,0.5843,0.5842,0.5842,0.5809,0.5809,0.5809,0.5808,0.5759,0.5757,0.5756,0.5754,0,0,0.5751,0.575,0,0,0,0,0,0,0,0,0.591,0.5906,0.5869,0.5866,0.5864,0.5831,0.5842,0.5812,0.5809,0.5829,0.5808,0.5808,0.5782,0.5779,0.5771,0.5751,0.5749,0.575,0.5749,0.5749,0.5748,0,0,0,0,0,0,0,0.5912,0.5908,0.587,0.5868,0.5865,0.5856,0.5851,0.5837,0.5808,0.5828,0.5825,0.5821,0.5781,0.5773,0.577,0.5748,0.575,0.5749,0.5748,0.5747,0.5725,0.5725,0,0,0,0,0,0,0.5919,0.591,0.5871,0.5868,0.5887,0.5855,0.585,0.5842,0.5809,0.5803,0.5821,0.5819,0.5776,0.5772,0.5768,0.5763,0.5749,0.5747,0.5746,0.5724,0.5725,0.5725,0,0,0,0,0,0,0.592,0.5916,0.5873,0.5889,0.5882,0.5855,0.5846,0.5841,0.5833,0.5804,0.5798,0.5818,0.5775,0.577,0.5758,0.5761,0.5746,0.5745,0.5724,0.5724,0.5725,0.5754,0,0,0,0,0,0,0.5922,0.5916,0.5916,0.5889,0.5882,0.5865,0.5847,0.5841,0.5831,0.5829,0.58,0.5794,0.5775,0.576,0.5756,0.5759,0.5744,0.5723,0.5724,0.5725,0.5753,0.5756,0.5758,0,0,0,0,0,0.5924,0.5925,0.5916,0.5912,0.5881,0.5865,0.5861,0.584,0.5832,0.5831,0.5812,0.5795,0.5762,0.5759,0.5754,0.5756,0.5723,0.5724,0.5725,0.5752,0.5755,0.5758,0,0,0,0,0,0,0.5951,0.5921,0.5911,0.5904,0.5887,0.586,0.5857,0.5844,0.5828,0.5826,0.5799,0.5793,0.5783,0.5768,0.5766,0.5753,0.574,0.574,0.5762,0.5766,0.5768,0.5771,0.5742,0,0,0,0,0,0.5956,0.5947,0.5921,0.5917,0.591,0.5885,0.5877,0.5863,0.5844,0.5836,0.5816,0.5798,0.5783,0.5774,0.5758,0.5751,0.5744,0.575,0.5753,0.5755,0.5755,0.575,0.5752,0.5728,0.5728,0.5728,0,0,0.5967,0.5949,0.5945,0.5922,0.5908,0.5898,0.5879,0.5869,0.5861,0.5834,0.5822,0.5807,0.5784,0.5774,0.5769,0.5762,0.576,0.5756,0.5758,0.5756,0.5751,0.5753,0.5755,0.5728,0.5728,0.5728,0,0,0.5981,0.5967,0.5962,0.5949,0.5929,0.5913,0.5912,0.5886,0.5876,0.5864,0.5843,0.5833,0.5808,0.5793,0.5782,0.5792,0.5776,0.5788,0.5801,0.5796,0.5798,0.58,0.5803,0.5804,0.5788,0.5788,0.5788,0,0.5996,0.5981,0.5961,0.5953,0.5943,0.5921,0.5915,0.5903,0.5878,0.5871,0.5864,0.5833,0.5816,0.5803,0.5805,0.5797,0.5795,0.579,0.58,0.5801,0.5802,0.5805,0.5806,0.5789,0.5789,0.5789,0.5789,0,0.6001,0.5991,0.5989,0.5968,0.5958,0.5951,0.5929,0.5921,0.5908,0.5893,0.588,0.586,0.584,0.5836,0.5822,0.582,0.5817,0.5805,0.5792,0.5806,0.5808,0.5809,0.5791,0.5791,0.579,0.579,0,0,0.6029,0.5998,0.5997,0.5988,0.5964,0.5955,0.5947,0.593,0.5924,0.5908,0.5899,0.588,0.587,0.5857,0.5842,0.5838,0.5847,0.5827,0.5826,0.583,0.5843,0.5851,0.5853,0.5837,0.5837,0.5837,0.5845,0,0.6038,0.6024,0.6007,0.5998,0.5988,0.5968,0.5961,0.5945,0.5931,0.5919,0.5903,0.5889,0.5877,0.587,0.5865,0.5847,0.5849,0.5846,0.5827,0.5827,0.5833,0.5854,0.5862,0.587,0.5845,0.5845,0.5846,0,0.6047,0.6034,0.6025,0.6003,0.5998,0.5993,0.5976,0.5966,0.5947,0.5937,0.5925,0.5908,0.5898,0.5887,0.5872,0.587,0.5862,0.5852,0.5851,0.5848,0.5836,0.5849,0.5872,0.5873,0.5847,0.5847,0.5846,0,0.6068,0.6048,0.604,0.6032,0.6007,0.6003,0.5992,0.5973,0.5964,0.5949,0.5943,0.5926,0.5917,0.5904,0.5883,0.5877,0.5869,0.5857,0.5859,0.586,0.5857,0.5857,0.5878,0.5854,0.5854,0.5854,0.5854,0,0.608,0.6075,0.6049,0.6044,0.6038,0.6018,0.6011,0.5998,0.5982,0.5973,0.5954,0.5946,0.592,0.5908,0.5892,0.5882,0.5877,0.5868,0.5863,0.5869,0.587,0.5862,0.586,0.5854,0.5854,0.5854,0.5854,0,0.6101,0.6084,0.6074,0.6051,0.6045,0.6042,0.6021,0.6015,0.6001,0.599,0.5986,0.5963,0.5948,0.5927,0.5906,0.5895,0.5886,0.588,0.5893,0.589,0.5893,0.5893,0.5908,0.5909,0.5886,0.5886,0.5886,0,0.6109,0.6105,0.6083,0.6076,0.6067,0.6056,0.6048,0.6028,0.6019,0.5999,0.5995,0.598,0.5966,0.5944,0.5924,0.5907,0.5899,0.5906,0.5897,0.5903,0.5898,0.5899,0.5898,0.5908,0.5908,0.5908,0.5909,0,0.6125,0.6117,0.6106,0.6093,0.6083,0.6071,0.6058,0.6054,0.6031,0.6022,0.6008,0.5998,0.5977,0.5962,0.5943,0.593,0.5915,0.5912,0.5912,0.5917,0.5924,0.5919,0.5898,0.5911,0.5911,0.5911,0.5911,0.5911,0.6139,0.6135,0.6119,0.6107,0.6096,0.6084,0.6078,0.6063,0.6052,0.6035,0.6024,0.601,0.5992,0.5966,0.5954,0.5942,0.5936,0.5935,0.5935,0.5935,0.5936,0.5928,0.5939,0.5938,0.5938,0.5938,0.5938,0,0.6153,0.6143,0.6133,0.6116,0.6107,0.6096,0.6081,0.6074,0.6063,0.6048,0.6036,0.602,0.6006,0.5986,0.5969,0.5964,0.5956,0.596,0.5959,0.5956,0.5943,0.5945,0.5966,0.5966,0.5966,0.5966,0.5966,0.5966,0.616,0.6152,0.6142,0.6129,0.6117,0.6106,0.6098,0.6087,0.6075,0.6059,0.6047,0.6035,0.6018,0.6,0.5986,0.598,0.5975,0.598,0.5972,0.596,0.5957,0.5955,0.5956,0.5979,0.5979,0.5986,0.5986,0.5986]}]]